Wind_Speed
5 4 4 3 6 6 11 12 8 11 8 4 4 1 1 4 3 4 10 16 20 21 21 22 20 21 19 17 16 14 12 13 13 13 12 11 11 10 10 10 10 9 8 11 10 12 13 10 9
6 4 2 5 6 10 11 8 13 11 9 7 4 3 3 6 3 8 19 18 21 20 20 20 19 19 19 17 15 14 12 11 11 12 12 11 11 12 11 10 10 9 8 9 10 11 10 9 10
7 3 4 5 3 11 10 10 9 8 6 3 2 4 1 4 4 16 15 22 22 19 18 19 19 19 19 17 15 13 12 11 11 12 12 11 11 10 11 11 10 9 7 8 10 9 9 11 14
5 2 5 5 11 11 9 8 6 6 2 2 1 5 4 1 13 13 22 23 22 20 16 17 17 17 18 17 15 12 11 10 10 12 12 10 10 9 9 10 9 9 7 7 11 11 11 15 13
4 5 5 6 11 8 7 7 1 2 3 3 2 4 5 10 12 18 22 23 22 21 18 17 16 15 15 16 15 13 11 10 11 13 11 11 10 9 9 9 9 9 8 9 11 10 12 14 14
6 6 3 6 10 8 7 5 2 2 2 3 1 4 7 10 15 19 21 22 21 21 19 19 17 15 15 14 15 14 12 11 11 12 11 11 10 10 10 10 10 10 7 10 12 9 13 14 16
8 8 5 5 6 7 9 7 3 4 1 1 3 3 6 12 15 19 20 20 20 20 20 18 18 17 15 15 15 14 12 11 11 11 11 11 10 10 11 10 10 9 7 9 11 12 12 15 12
7 4 3 1 5 6 7 7 6 5 1 5 7 3 6 16 17 19 20 20 20 20 19 19 17 17 17 15 15 14 13 11 11 11 10 9 9 10 9 10 11 10 8 9 13 12 13 14 11
7 6 5 1 3 4 6 9 8 4 6 8 9 4 3 18 19 20 21 22 22 21 20 19 19 18 18 16 15 15 14 13 12 12 12 11 7 7 7 9 9 10 8 9 15 14 14 13 12
9 8 6 4 5 8 10 11 13 7 7 11 11 9 12 22 20 22 24 24 24 23 22 20 19 18 18 15 15 15 14 14 12 12 11 9 9 8 9 9 10 10 9 8 12 14 14 14 8
6 13 8 11 11 14 14 14 11 9 10 13 16 14 19 24 24 23 24 23 24 23 22 22 21 20 18 18 16 17 14 14 14 13 12 11 11 9 9 7 9 9 11 9 11 11 11 11 11
11 16 15 20 17 19 15 19 15 9 14 1 12 19 25 27 28 27 24 23 23 24 23 22 21 21 22 19 18 16 16 15 17 13 14 12 10 10 10 9 12 14 13 16 14 11 11 12 14
15 20 20 20 17 16 19 19 18 20 10 8 11 23 25 26 27 26 25 23 24 25 24 23 23 23 22 21 18 18 16 15 13 14 15 13 11 10 8 10 11 11 11 13 14 15 14 13 13
16 17 19 19 22 17 19 20 15 17 4 12 13 20 23 26 28 27 27 27 26 25 25 23 23 23 23 22 21 20 17 16 17 15 15 17 13 13 8 7 10 16 13 14 13 12 12 13 13
15 17 18 21 20 19 17 21 17 16 3 9 13 16 20 24 27 32 30 29 28 25 24 25 24 23 24 24 22 20 20 19 17 16 17 20 18 16 11 7 9 11 11 14 14 14 14 14 14
16 13 14 16 13 13 11 17 14 3 8 8 10 14 19 25 29 29 29 28 28 26 26 26 24 24 23 23 22 19 18 18 16 17 16 21 21 18 15 10 10 12 13 13 14 15 13 14 15
15 15 18 15 11 6 12 18 16 7 12 16 18 15 19 24 29 31 30 30 29 28 27 27 27 26 23 22 20 21 20 19 17 16 16 19 21 21 17 12 12 13 12 14 13 15 14 14 15
20 19 19 17 17 14 15 19 15 24 21 21 21 19 16 25 32 32 31 30 30 30 30 29 29 27 25 22 22 18 19 20 18 18 17 18 20 21 18 17 16 15 14 14 15 16 15 16 16
23 23 23 19 10 17 15 20 17 18 26 23 25 19 19 26 23 30 32 31 31 30 33 33 33 31 29 27 23 20 22 21 19 18 18 17 19 19 18 18 18 17 17 17 17 16 17 17 18
24 24 24 22 16 20 18 21 16 17 25 21 26 19 19 18 25 29 34 34 34 34 35 35 35 34 33 28 25 20 20 19 20 19 20 20 19 19 18 19 16 18 19 19 20 19 17 18 19
25 23 23 24 20 18 17 22 21 16 18 20 21 20 17 20 27 29 35 38 34 35 36 36 35 35 34 30 24 24 17 17 18 19 18 20 20 19 19 19 20 19 20 21 20 21 22 21 21
21 20 24 22 21 17 17 14 17 13 17 14 18 17 17 18 24 28 31 37 38 34 32 36 37 35 34 34 25 27 24 22 20 17 17 18 21 21 20 20 19 20 19 20 22 21 23 24 27
19 19 22 20 20 19 23 12 13 13 14 15 17 18 15 16 20 25 30 33 35 36 38 39 42 38 37 36 32 28 27 21 18 21 17 20 19 20 21 22 23 24 22 22 19 20 21 24 28
14 15 15 14 14 15 16 18 15 13 8 13 17 15 14 11 14 18 22 25 30 35 36 40 41 41 38 39 36 33 27 25 20 20 22 18 17 18 20 20 21 21 21 22 20 20 21 21 24
10 14 12 13 13 13 15 13 8 10 14 8 12 15 10 9 8 14 19 25 30 36 39 37 43 42 41 40 36 36 33 29 26 21 18 19 19 19 19 14 17 20 22 22 20 19 18 18 22
7 14 10 14 10 9 20 10 11 14 10 6 5 8 11 16 18 16 19 21 28 34 42 39 47 43 44 40 36 33 33 29 24 20 17 16 21 18 16 17 16 19 20 22 23 21 17 17 20
6 6 9 10 12 10 13 22 17 13 12 7 13 12 12 13 17 21 21 21 25 31 36 40 40 44 43 40 36 33 30 27 20 18 16 10 12 12 17 16 17 17 20 23 23 20 17 17 19
10 4 8 6 11 14 9 17 13 14 17 10 14 13 14 13 13 14 15 18 22 26 30 35 34 38 40 38 36 32 27 24 25 21 16 14 8 8 12 13 14 16 19 21 21 20 16 16 17
7 12 11 13 8 15 11 11 11 12 10 13 10 13 13 12 10 5 4 10 15 19 26 29 29 30 32 36 34 32 26 25 24 21 17 17 14 11 10 11 12 12 14 17 18 20 15 15 16
6 5 9 10 11 13 14 17 10 1 6 7 9 10 10 6 7 2 5 11 15 20 20 23 23 23 23 25 29 29 27 26 24 21 17 16 13 9 10 10 11 11 11 11 12 13 12 14 15
Wind_Direction
179 165 197 254 238 239 45 58 26 35 70 43 108 205 55 2 312 29 140 155 155 156 162 164 169 166 162 160 153 149 148 152 159 164 167 163 162 153 142 142 141 138 128 140 133 148 151 152 145
176 190 219 273 276 49 58 33 42 35 67 90 117 151 152 84 87 120 145 154 156 156 161 164 170 169 168 166 159 152 150 151 156 162 162 161 164 160 158 153 148 141 141 150 150 149 152 154 147
180 203 250 269 317 44 35 43 52 77 95 43 120 331 61 79 144 143 159 152 156 158 159 174 171 171 173 172 167 162 155 155 155 157 159 162 158 161 164 161 152 153 149 150 149 151 156 150 141
177 261 246 283 45 66 20 39 67 115 130 4 78 103 103 85 145 151 151 155 159 156 160 186 172 171 174 175 172 169 160 153 153 159 159 165 164 154 158 162 159 155 153 146 152 146 143 143 151
226 256 248 72 60 37 59 22 136 95 47 68 320 104 88 128 141 150 152 157 161 160 164 177 173 172 177 177 176 175 170 163 158 158 160 161 160 162 162 161 163 164 156 150 149 149 150 152 153
234 262 293 29 39 63 53 39 295 323 67 103 242 132 113 159 151 157 159 160 164 164 166 170 172 177 180 183 181 179 176 173 165 157 160 160 159 159 162 162 167 167 164 164 165 164 158 152 145
273 263 19 358 35 44 30 8 314 334 265 156 122 181 124 164 163 164 164 165 168 169 167 174 173 177 186 188 189 185 182 178 171 166 167 166 159 157 166 169 172 172 175 166 171 169 168 168 164
278 268 249 234 18 52 30 346 357 305 327 142 165 186 173 178 171 170 168 170 171 173 174 175 176 180 184 189 193 190 189 184 177 173 177 169 168 171 167 169 175 178 187 178 171 184 176 168 169
268 257 249 247 330 5 18 336 352 311 233 205 188 162 147 174 170 172 174 175 175 178 179 180 181 186 186 185 195 192 194 193 189 181 184 177 175 177 186 181 193 186 191 185 188 189 189 182 179
247 274 298 349 324 318 318 319 314 268 228 204 197 174 157 168 175 178 181 182 181 182 183 184 184 189 183 187 197 189 195 192 195 190 193 169 185 184 181 201 197 193 194 193 193 197 196 193 199
235 264 322 300 303 313 310 303 322 269 241 227 206 190 172 171 181 189 189 191 187 184 185 187 186 185 184 186 193 187 195 194 197 196 191 188 198 203 185 215 204 207 197 192 191 200 198 203 196
256 251 266 285 297 303 306 314 306 291 284 303 209 189 184 182 187 190 196 194 190 189 187 189 188 187 190 193 190 193 193 196 203 198 196 199 194 208 196 214 229 208 203 192 185 198 201 209 210
247 269 276 276 280 288 303 299 301 298 280 209 185 184 188 191 191 196 193 197 195 193 189 190 190 193 194 195 197 194 195 198 199 205 207 197 198 204 210 223 215 216 219 204 198 193 202 216 219
276 287 283 277 278 277 286 289 289 291 310 199 198 202 200 199 195 192 197 194 199 196 192 192 195 198 198 200 200 200 198 203 201 204 210 204 200 213 222 228 218 217 197 220 200 209 209 213 222
269 271 274 264 262 263 275 276 257 266 233 207 216 218 217 212 199 198 198 196 196 200 196 195 200 203 203 206 207 208 210 204 210 209 213 220 213 215 216 225 209 218 214 208 209 205 211 216 217
259 271 272 267 250 260 241 259 258 344 272 249 267 250 233 218 209 203 199 197 195 196 198 198 200 205 207 208 210 206 208 210 212 215 217 224 219 222 228 214 221 216 215 229 217 216 207 226 225
237 256 261 260 276 262 251 270 271 269 272 275 276 271 241 224 213 206 199 197 195 195 199 202 203 206 208 211 209 212 211 209 212 214 220 230 225 222 231 222 227 217 213 224 229 225 219 222 228
251 242 247 258 273 257 261 266 264 273 275 270 264 273 252 227 217 207 199 196 197 196 203 206 207 208 209 211 210 209 211 212 211 213 218 224 218 226 234 226 221 225 220 223 225 229 234 231 233
268 269 272 283 257 274 265 278 275 276 272 263 262 259 253 234 217 208 202 199 194 197 201 208 209 209 211 208 207 204 209 211 213 215 216 220 218 224 232 238 239 233 224 226 231 232 233 236 236
253 261 260 263 257 271 275 271 278 276 268 263 258 255 252 229 212 205 201 199 199 197 199 208 211 211 212 212 207 207 209 214 218 225 226 225 228 230 233 236 237 241 232 236 234 232 231 240 232
248 251 259 256 261 243 266 270 267 252 246 250 249 246 245 226 213 204 201 202 199 200 198 204 210 213 213 210 209 212 211 212 224 225 227 228 228 232 238 239 235 236 237 237 237 235 237 231 234
262 253 246 260 252 252 252 275 276 283 272 257 247 227 233 218 211 210 205 204 204 200 199 205 208 211 215 214 208 213 212 213 222 224 229 229 236 236 237 243 241 239 238 243 242 246 242 241 240
272 276 266 247 252 254 253 254 259 261 263 261 249 226 212 208 203 205 209 210 206 202 200 204 210 206 214 215 209 217 221 225 227 227 229 235 236 238 244 246 245 245 239 237 237 242 245 247 245
281 269 253 269 268 253 237 255 265 258 272 271 233 226 227 220 214 206 208 208 207 206 204 207 211 209 211 216 216 222 222 220 220 226 232 243 236 242 252 238 240 239 241 240 243 246 253 247 245
238 243 244 233 226 242 245 263 265 288 277 272 294 286 280 264 245 214 207 206 205 204 207 204 211 208 209 214 219 223 225 229 235 239 245 246 242 242 252 239 234 237 240 244 248 251 250 246 240
256 259 270 286 279 328 344 220 246 236 261 303 301 294 291 282 276 261 242 224 210 203 204 201 211 210 208 210 216 222 227 228 231 240 253 254 257 255 247 255 248 246 244 247 250 252 252 244 237
142 236 305 247 263 274 216 232 269 254 247 47 344 338 324 309 288 275 263 241 220 204 201 200 204 210 209 209 213 220 226 224 219 225 255 239 241 232 244 248 252 252 251 251 243 248 244 234 237
261 182 214 193 255 248 240 273 279 280 279 333 321 339 335 332 313 292 265 235 216 206 195 196 199 203 205 205 211 216 221 216 221 231 236 222 210 234 242 240 241 250 249 245 243 242 236 233 228
215 221 242 272 222 257 271 259 259 253 315 315 330 346 344 338 337 319 229 190 190 194 188 191 195 193 194 199 206 211 208 210 215 226 228 224 221 244 243 244 242 240 244 250 244 234 226 229 228
269 307 294 270 234 242 270 278 303 255 286 331 346 350 354 348 1 35 149 148 160 167 175 181 188 191 193 194 200 202 199 203 212 221 221 223 222 236 240 241 242 242 239 228 229 230 233 229 225
Height
1519 1521 1522 1520 1512 1493 1492 1495 1483 1488 1488 1496 1499 1499 1500 1502 1501 1507 1514 1517 1520 1524 1526 1526 1530 1533 1536 1539 1541 1543 1545 1547 1548 1550 1551 1552 1554 1555 1555 1556 1557 1558 1558 1559 1560 1561 1562 1563 1564
1523 1521 1522 1519 1498 1493 1497 1487 1492 1494 1497 1499 1502 1502 1502 1502 1508 1511 1514 1518 1522 1525 1527 1530 1530 1533 1537 1539 1541 1544 1546 1547 1549 1550 1551 1553 1555 1556 1557 1558 1558 1559 1561 1561 1562 1562 1563 1565 1566
1522 1521 1521 1503 1485 1499 1498 1490 1492 1498 1501 1501 1501 1503 1502 1505 1509 1512 1514 1517 1523 1528 1530 1531 1532 1535 1537 1540 1542 1544 1546 1548 1549 1551 1552 1554 1555 1557 1557 1559 1559 1561 1562 1562 1563 1564 1565 1566 1567
1522 1522 1518 1499 1493 1491 1492 1489 1495 1498 1500 1502 1501 1501 1507 1508 1510 1512 1514 1519 1523 1528 1532 1530 1533 1535 1538 1541 1543 1544 1546 1548 1549 1551 1553 1554 1556 1558 1559 1560 1561 1562 1563 1564 1564 1565 1567 1568 1569
1523 1518 1494 1489 1491 1488 1487 1492 1494 1495 1498 1500 1502 1502 1507 1511 1512 1513 1515 1520 1524 1528 1532 1531 1533 1536 1538 1541 1543 1545 1547 1548 1550 1551 1553 1555 1557 1558 1559 1560 1562 1563 1564 1565 1566 1567 1568 1569 1571
1519 1515 1490 1497 1492 1486 1487 1490 1493 1494 1498 1501 1502 1504 1508 1512 1513 1515 1518 1521 1525 1528 1531 1531 1533 1536 1539 1541 1543 1545 1547 1548 1550 1552 1554 1555 1557 1558 1560 1561 1562 1563 1565 1566 1568 1568 1570 1571 1573
1513 1500 1496 1491 1491 1487 1488 1491 1489 1489 1494 1498 1502 1501 1508 1513 1514 1516 1518 1522 1525 1528 1531 1532 1533 1535 1539 1541 1543 1546 1547 1549 1550 1552 1554 1556 1557 1559 1560 1562 1563 1564 1565 1567 1568 1570 1571 1573 1574
1513 1503 1492 1489 1490 1490 1486 1488 1489 1489 1490 1497 1500 1500 1504 1511 1513 1516 1518 1521 1525 1527 1530 1533 1535 1537 1538 1540 1543 1546 1548 1550 1551 1553 1554 1556 1557 1559 1560 1562 1563 1564 1565 1567 1569 1570 1572 1574 1576
1513 1500 1490 1488 1489 1487 1484 1485 1485 1490 1491 1496 1498 1500 1505 1508 1512 1516 1518 1520 1523 1526 1529 1532 1535 1537 1537 1541 1543 1546 1548 1550 1552 1553 1554 1556 1559 1559 1560 1562 1563 1564 1565 1566 1568 1570 1572 1574 1576
1508 1495 1485 1482 1485 1486 1485 1487 1485 1486 1488 1492 1496 1499 1502 1506 1512 1514 1517 1518 1520 1523 1527 1530 1534 1536 1538 1542 1544 1546 1549 1550 1553 1554 1555 1559 1560 1561 1563 1563 1563 1564 1565 1566 1568 1570 1572 1575 1579
1501 1499 1487 1487 1487 1488 1486 1484 1483 1481 1482 1484 1490 1497 1499 1502 1507 1512 1514 1517 1519 1522 1526 1529 1532 1535 1538 1541 1543 1545 1547 1551 1553 1553 1555 1559 1560 1559 1561 1563 1563 1564 1564 1567 1568 1569 1572 1576 1579
1502 1495 1494 1491 1490 1488 1486 1485 1481 1480 1479 1480 1484 1489 1493 1497 1501 1506 1512 1515 1518 1520 1523 1527 1530 1533 1535 1538 1541 1544 1547 1549 1549 1553 1553 1557 1558 1559 1561 1563 1562 1561 1562 1565 1568 1571 1573 1575 1576
1499 1494 1492 1490 1488 1487 1487 1483 1479 1478 1476 1478 1482 1484 1488 1492 1496 1502 1506 1512 1515 1517 1521 1524 1527 1529 1532 1534 1538 1541 1544 1547 1550 1551 1551 1554 1556 1557 1558 1559 1560 1562 1562 1563 1564 1567 1571 1573 1573
1495 1493 1490 1488 1485 1486 1485 1479 1477 1474 1474 1476 1480 1483 1485 1487 1491 1497 1502 1506 1511 1515 1518 1521 1523 1526 1529 1531 1534 1536 1540 1544 1546 1549 1550 1550 1553 1553 1555 1556 1556 1557 1561 1560 1563 1565 1568 1570 1572
1497 1494 1487 1483 1481 1479 1480 1475 1471 1470 1475 1475 1477 1481 1483 1485 1488 1489 1495 1501 1507 1512 1516 1517 1519 1523 1526 1528 1531 1534 1537 1539 1541 1545 1546 1548 1549 1550 1552 1555 1555 1556 1558 1558 1560 1562 1565 1567 1569
1493 1487 1489 1471 1470 1473 1479 1477 1462 1466 1470 1473 1474 1476 1478 1480 1483 1487 1492 1498 1503 1508 1512 1514 1517 1519 1523 1525 1528 1532 1536 1537 1540 1541 1544 1544 1547 1549 1550 1553 1554 1555 1557 1557 1558 1560 1564 1566 1567
1482 1490 1480 1473 1466 1472 1474 1472 1463 1465 1468 1469 1468 1469 1471 1474 1478 1481 1486 1491 1497 1503 1508 1510 1513 1516 1519 1523 1526 1529 1532 1534 1537 1539 1540 1540 1543 1546 1548 1550 1552 1551 1554 1556 1557 1557 1560 1563 1564
1482 1477 1474 1475 1466 1462 1468 1465 1463 1465 1464 1462 1462 1462 1464 1467 1469 1477 1480 1485 1492 1495 1501 1506 1510 1514 1517 1520 1523 1526 1529 1530 1533 1535 1537 1537 1538 1541 1543 1545 1548 1548 1550 1553 1554 1556 1557 1559 1561
1475 1474 1473 1465 1464 1467 1467 1463 1460 1461 1458 1456 1454 1454 1456 1459 1467 1472 1476 1481 1485 1490 1494 1499 1505 1509 1513 1516 1519 1522 1524 1527 1530 1532 1534 1534 1535 1537 1539 1541 1543 1543 1546 1548 1549 1551 1551 1554 1556
1475 1476 1472 1465 1463 1465 1461 1459 1454 1456 1452 1449 1448 1446 1448 1454 1459 1465 1469 1473 1477 1481 1486 1492 1498 1504 1508 1512 1516 1520 1522 1526 1527 1530 1531 1532 1533 1534 1535 1537 1539 1540 1541 1543 1544 1545 1548 1550 1552
1469 1470 1469 1466 1459 1453 1457 1457 1450 1445 1444 1443 1443 1441 1442 1445 1452 1459 1462 1464 1471 1475 1478 1485 1492 1499 1504 1508 1512 1516 1520 1524 1525 1526 1527 1528 1529 1530 1531 1533 1534 1536 1536 1538 1539 1540 1541 1544 1547
1468 1458 1460 1463 1463 1469 1446 1467 1447 1440 1440 1434 1435 1433 1436 1439 1445 1451 1456 1459 1463 1471 1476 1480 1485 1492 1499 1504 1508 1510 1515 1518 1520 1521 1524 1524 1524 1526 1527 1528 1528 1529 1531 1532 1534 1535 1536 1537 1538
1462 1456 1454 1454 1457 1458 1452 1460 1444 1436 1439 1431 1427 1426 1430 1432 1437 1442 1446 1451 1459 1464 1466 1470 1472 1479 1491 1497 1502 1505 1510 1514 1517 1516 1518 1518 1518 1519 1521 1521 1522 1522 1524 1526 1528 1528 1530 1530 1531
1455 1456 1454 1456 1455 1463 1448 1451 1443 1437 1430 1424 1420 1421 1425 1427 1430 1434 1440 1446 1452 1459 1462 1465 1468 1475 1482 1490 1495 1499 1504 1509 1512 1512 1513 1515 1515 1514 1516 1517 1518 1519 1520 1521 1523 1523 1523 1523 1524
1454 1458 1471 1473 1466 1465 1438 1443 1434 1427 1424 1422 1423 1421 1422 1425 1428 1430 1433 1437 1443 1448 1454 1459 1462 1468 1477 1484 1490 1494 1499 1503 1506 1508 1510 1510 1509 1510 1513 1513 1514 1515 1516 1518 1520 1520 1520 1518 1519
1448 1452 1463 1486 1482 1473 1449 1454 1439 1422 1419 1423 1424 1425 1425 1424 1424 1426 1427 1430 1433 1438 1443 1451 1455 1463 1470 1477 1483 1489 1494 1498 1502 1504 1507 1507 1505 1507 1511 1510 1511 1511 1513 1514 1516 1517 1516 1517 1516
1452 1461 1443 1461 1454 1463 1463 1451 1425 1421 1417 1418 1422 1423 1423 1425 1424 1422 1422 1424 1428 1431 1436 1442 1448 1456 1465 1471 1478 1483 1489 1494 1499 1501 1502 1503 1503 1506 1507 1508 1507 1508 1510 1510 1511 1513 1513 1514 1514
1444 1442 1456 1454 1481 1475 1458 1448 1437 1424 1418 1420 1422 1421 1422 1422 1420 1417 1416 1417 1422 1428 1431 1439 1444 1450 1458 1465 1472 1478 1484 1490 1493 1496 1498 1500 1502 1503 1506 1506 1507 1505 1505 1506 1507 1509 1509 1510 1511
1441 1444 1445 1442 1453 1469 1453 1438 1411 1416 1416 1422 1419 1422 1421 1420 1418 1415 1415 1416 1420 1426 1431 1436 1442 1448 1453 1459 1466 1472 1479 1484 1488 1492 1495 1497 1499 1501 1503 1504 1505 1504 1504 1502 1503 1505 1507 1506 1509
1439 1441 1440 1446 1452 1442 1440 1435 1406 1416 1418 1425 1422 1423 1424 1421 1420 1418 1418 1417 1420 1424 1429 1435 1443 1451 1456 1461 1465 1469 1475 1480 1483 1487 1491 1494 1497 1498 1501 1503 1503 1504 1503 1501 1501 1503 1504 1505 1506